Showing default

SPAWAR-CAL-OR, 43778

Orbit data source: Space-Track

SPAWAR-CAL-OR, 43778 is a payload satellite owned by SPAWAR (US) in SSO that was launched on Mon, 03 Dec 2018 UTC via an FALCON 9 launch vehicle from the Air Force Western Test Range (AFWTR). Payload-class satellites include a variety of spacecraft equipped with specific instruments for various scientific and technological missions. These include communications satellites like Starlink; space stations such as the ISS; scientific satellites like the Hubble; Earth observation satellites from companies like Planet Labs, Umbra, and HawkEye 360; GPS; miniature CubeSats for education and research; and military/defense satellites.

Loading next visibility...
Identifier
43778, 2018-099W
Orbit
SSO
Country
Flag of USUS
Related business
Manufacturer
SPAWAR?
Mission
Operational Defense Calibration
Bus & Motor
CUBESAT 1U, Unknown motor
Mass
1 kg wet, 1 kg dry
Launch date (UTC)
2018-12-03 (8 years ago)
Launch vehicle
FALCON 9
Launch site
Air Force Western Test Range (AFWTR)
Object type
Payload
Rocket body
Debris
Shape & HBR
Box, 0.1 m
Radar Cross Section
0.015 m², Medium (>0.1 m² and < 1m²)

Expand to show TLE details & history
Last TLE update: 19 hours ago

TLE from 19 hours ago
0 SPAWAR-CAL-OR
1 43778U 18099W   26193.60340630  .00005651  00000-0  23753-3 0  9999
2 43778  97.3785 241.4345 0010407 218.3787 141.6711 15.23767264416523
Epoch: 2026-07-12T14:28Z
TLE epoch observation values (Epoch: 2026-07-12T14:28:54.304Z)
Latitude
Longitude
93.70833°
Altitude
503.201 km
Speed
7.61 km/s
True Right ascension
16h 05m 44s
True Declination
0° 00' 00"
Sunlit
Object was in full shadow at epoch
Visualization orbit readout
Latitude
Unknown
Longitude
Unknown
Altitude
Unknown
Speed
Unknown
Apparent Right ascension
Unknown
Apparent Declination
Unknown
Sunlit
N/A
Visualization observer readout
Local Sidereal Time
21:32:03
Azimuth
Unknown
Elevation
Unknown
Doppler factor
Unknown
Orbital elements
Apogee altitude
498.598 km
Perigee altitude
484.3 km
Semi-major axis
6,869.586 km
Eccentricity
0.00104
Inclination
97.3785°
RAAN
241.4345°
Arg. of periapsis
218.3787°
True anomaly
141.74498°
Mean anomaly
141.6711°
Eccentric anomaly
141.70805°
Mean motion
3.81195 °/min
Orbital period
94.44 mins
BSTAR
0.00023753
Loading maneuver chart data...
Computing Atmospheric mass density...
Loading historical data...
Loading historical data...
Loading historical data...
Loading historical data...
Loading historical data...
Loading historical data...
Loading historical data...

Documentation

Showing up to 5 results
|